FW7342 Weather Reports


time (UTC)temp
F
wind
direction
speed
knots
gust
knots
rain 1hr
in
rain 24hr
in
rain mn
in
humidity
%
barometer
mb
20260505225058 53 0 0.9 1.7 0.00 0.01 0.00 87 1018.9
20260505224017 53 0 0.9 1.7 0.00 0.01 0.00 87 1019.1
20260505223017 53 0 0.9 1.7 0.00 0.01 0.00 87 1019.0
20260505222017 53 0 1.7 2.6 0.00 0.01 0.00 87 1019.1
20260505221017 53 0 0.9 2.6 0.00 0.01 0.00 87 1019.1
20260505220017 53 0 1.7 2.6 0.00 0.01 0.01 86 1019.1
20260505215057 53 0 0.9 1.7 0.00 0.01 0.01 86 1019.2
20260505214017 53 0 1.7 2.6 0.00 0.01 0.01 86 1019.4
20260505213017 53 0 0.9 1.7 0.00 0.01 0.01 86 1019.4
20260505212016 53 0 1.7 2.6 0.00 0.01 0.01 86 1019.2
20260505211017 53 0 0.9 2.6 0.00 0.01 0.01 86 1019.1
20260505210017 53 0 0.9 2.6 0.00 0.01 0.01 86 1018.7
20260505205016 53 0 1.7 1.7 0.00 0.01 0.01 86 1018.8
20260505204017 53 0 1.7 2.6 0.00 0.01 0.01 86 1018.9
20260505203037 53 0 0.9 2.6 0.00 0.01 0.01 85 1019.0
20260505202017 53 0 1.7 2.6 0.00 0.01 0.01 85 1019.0
20260505201016 54 0 0.9 2.6 0.00 0.01 0.01 85 1018.9
20260505200016 54 0 0.9 1.7 0.00 0.01 0.01 85 1018.9
20260505195016 54 0 0.9 2.6 0.00 0.01 0.01 85 1018.9
20260505194016 54 0 1.7 3.5 0.00 0.01 0.01 85 1019.0
20260505193037 54 0 1.7 2.6 0.00 0.01 0.01 85 1019.1
20260505192016 54 0 0.9 1.7 0.00 0.01 0.01 85 1019.1
20260505191017 54 0 0.9 1.7 0.00 0.02 0.01 84 1019.2
20260505190016 54 0 0.9 1.7 0.00 0.03 0.01 84 1018.9
20260505185016 54 0 0.9 2.6 0.00 0.04 0.01 84 1018.8
20260505184017 54 0 1.7 3.5 0.00 0.04 0.01 84 1018.6
20260505183016 54 0 0.9 1.7 0.00 0.04 0.01 84 1018.6
20260505182016 54 0 1.7 2.6 0.00 0.04 0.01 84 1018.3
20260505181016 54 0 1.7 2.6 0.00 0.04 0.01 83 1018.2
20260505180016 54 0 0.9 2.6 0.00 0.04 0.01 83 1018.0
20260505175017 54 0 0.9 2.6 0.00 0.04 0.01 82 1017.9
20260505174016 55 0 0.9 1.7 0.00 0.04 0.01 82 1017.8
20260505173016 55 0 0.9 2.6 0.00 0.04 0.01 81 1017.9
20260505172016 55 0 0.9 1.7 0.00 0.04 0.01 81 1017.6
20260505171016 56 0 0.9 2.6 0.00 0.04 0.01 81 1017.6
20260505170016 56 0 0.9 3.5 0.00 0.04 0.01 81 1017.4
20260505165016 56 0 1.7 3.5 0.00 0.04 0.01 80 1017.3
20260505164016 57 0.0 0.9 0.00 0.04 0.01 79 1017.1
20260505163016 57 0.0 0.9 0.00 0.04 0.01 79 1017.1
20260505162016 57 0 1.7 2.6 0.00 0.04 0.01 78 1016.9
20260505161038 58 0 0.9 1.7 0.00 0.04 0.01 77 1016.6
20260505153018 59 0 0.9 3.5 0.00 0.04 0.01 73 1016.3
20260505152016 59 0 1.7 3.5 0.00 0.04 0.01 72 1016.2
20260505151017 60 0 1.7 3.5 0.00 0.04 0.01 70 1016.3
20260505125037 67 0 3.5 8.7 0.00 0.04 0.01 57 1015.7
20260505124017 67 0 2.6 7.0 0.00 0.04 0.01 58 1015.6
20260505123017 66 0 3.5 8.7 0.00 0.04 0.01 57 1015.6
20260505122018 66 0 2.6 5.2 0.00 0.04 0.01 60 1015.6
20260505121018 65 0 2.6 7.8 0.00 0.04 0.01 61 1015.6
20260505120017 65 0 2.6 5.2 0.00 0.04 0.01 61 1015.4
20260505115017 65 0 2.6 7.0 0.00 0.04 0.01 61 1015.4
20260505114017 65 0 4.3 8.7 0.00 0.04 0.01 60 1015.6
20260505113018 66 0 3.5 9.6 0.00 0.04 0.01 63 1015.7
20260505112037 65 0 1.7 3.5 0.00 0.04 0.01 63 1015.9
20260505111017 64 0 1.7 3.5 0.00 0.04 0.01 65 1016.0
20260505102017 65 0 1.7 2.6 0.00 0.04 0.01 65 1016.4
20260505101037 65 0 2.6 5.2 0.00 0.04 0.01 65 1016.4
20260505100017 64 0 1.7 4.3 0.00 0.04 0.01 66 1016.5
20260505095016 64 0 1.7 5.2 0.00 0.04 0.01 70 1016.7
20260505094017 63 0 0.9 3.5 0.00 0.04 0.01 72 1016.6
20260505093016 63 0 1.7 5.2 0.00 0.04 0.01 73 1016.6
20260505092057 63 0 0.9 3.5 0.00 0.04 0.01 73 1016.6
20260505091016 62 135 0.9 5.2 0.00 0.04 0.01 81 1016.6
20260505090017 61 135 0.9 3.5 0.00 0.04 0.01 90 1016.6
20260505085016 59 113 0.9 2.6 0.00 0.04 0.01 92 1016.7
20260505084037 59 0.0 1.7 0.00 0.04 0.01 93 1016.6
20260505083016 57 180 0.9 3.5 0.00 0.04 0.01 94 1016.6
20260505082017 56 0.0 0.9 0.00 0.04 0.01 94 1016.6
20260505081016 56 0.0 1.7 0.00 0.04 0.01 94 1016.6
20260505080016 55 0.0 1.7 0.00 0.04 0.01 94 1016.6
20260505075016 55 0.0 0.9 0.00 0.04 0.01 94 1016.6
20260505074016 55 0 0.9 2.6 0.00 0.04 0.01 94 1016.6
20260505073036 55 0.0 1.7 0.00 0.04 0.01 94 1016.6
20260505072016 54 0.0 0.0 0.00 0.04 0.01 94 1016.4
20260505071016 53 0.0 0.0 0.00 0.04 0.01 94 1016.3
20260505070016 53 0.0 0.0 0.00 0.04 0.01 94 1016.2
20260505065016 52 0.0 0.9 0.00 0.05 0.01 94 1016.1
20260505064018 51 0.0 1.7 0.00 0.05 0.01 94 1016.0
20260505063016 50 0.0 0.0 0.00 0.09 0.01 94 1015.8
20260505062016 49 0.0 0.9 0.00 0.09 0.01 92 1015.6
20260505061016 49 0.0 0.9 0.00 0.10 0.01 91 1015.3
20260505060016 49 0.0 0.0 0.00 0.12 0.01 91 1015.3
20260505055016 49 0.0 0.0 0.00 0.12 0.01 91 1015.3
20260505054016 49 0.0 0.9 0.00 0.12 0.01 91 1015.5
20260505053017 49 0 0.9 2.6 0.00 0.12 0.01 91 1015.4
20260505052016 49 0.0 0.9 0.00 0.12 0.01 91 1015.3
20260505051016 49 0.0 1.7 0.00 0.12 0.01 91 1015.1
20260505041017 51 0.0 0.0 0.00 0.16 0.01 91 1014.5
20260505040016 51 0.0 0.0 0.01 0.17 0.01 91 1014.5
20260505035017 51 0.0 0.9 0.01 0.20 0.01 91 1014.4
20260505034018 50 0.0 0.9 0.01 0.22 0.01 91 1014.5
20260505033017 50 0.0 1.7 0.01 0.24 0.01 90 1014.2
20260505032018 50 0.0 0.9 0.01 0.25 0.01 89 1014.2
20260505031017 50 0.0 0.9 0.01 0.26 0.01 89 1014.2
20260505030038 50 0.0 1.7 0.00 0.27 0.00 89 1014.1
20260505025017 50 0.0 0.9 0.00 0.28 0.00 89 1014.2
20260505024017 50 0.0 0.9 0.00 0.31 0.00 89 1014.2
20260505023018 50 0.0 0.0 0.00 0.35 0.00 89 1014.2
20260505022017 50 0.0 0.9 0.00 0.38 0.00 89 1014.3
20260505021017 50 0.0 0.9 0.00 0.42 0.00 88 1014.1
20260505020017 50 0.0 0.9 0.00 0.44 0.00 88 1014.2
20260505015017 51 0.0 0.9 0.00 0.48 0.00 88 1014.2
20260505014017 51 0 0.9 1.7 0.00 0.52 0.00 88 1014.3
20260505013017 51 0.0 0.9 0.00 0.57 0.00 88 1014.3
20260505012017 51 0.0 0.9 0.00 0.63 0.00 88 1014.3
20260505011017 51 0.0 0.9 0.00 0.69 0.00 88 1014.4
20260505010037 52 0 0.9 1.7 0.00 0.83 0.00 88 1014.5
20260505004017 52 0.0 1.7 0.00 1.17 0.00 88 1014.7
20260505003017 52 0 0.9 1.7 0.00 1.25 0.00 88 1014.7
20260505002017 52 0.0 0.9 0.00 1.32 0.00 88 1014.8
20260505001057 53 0.0 1.7 0.00 1.38 0.00 88 1014.8
20260505000017 53 0.0 0.9 0.00 1.41 0.00 88 1014.8
20260504235017 53 0 0.9 1.7 0.00 1.46 0.00 88 1014.8
20260504234018 53 0 0.9 1.7 0.00 1.51 0.00 88 1014.8
20260504233017 53 0.0 1.7 0.00 1.57 0.00 88 1014.7
20260504232017 53 0.0 1.7 0.00 1.61 0.00 88 1014.8
20260504231037 53 0 1.7 3.5 0.00 1.64 0.00 88 1014.6
20260504230017 53 0 0.9 2.6 0.00 1.66 0.00 88 1014.8